Location: Springfield
(37.2150°N, 93.2980°W)
Time: 22:58:30
(UTC-05:00)

CZ-4C R/B - Pass Details

Date: 19 April 2018
Orbit: 691 x 1311 km, 63.4° (Epoch: 23 May)

Event Time Altitude Azimuth Distance (km) Brightness Sun altitude
Exits shadow 23:26:52 15° 36° (NE) 2,157 4.5 -35.4°
Drops below altitude 10° 23:27:47 10° 35° (NE) 2,508 4.9 -35.5°
Sets 23:30:28 0° 34° (NE) 3,547 5.7 -35.7°
